Kecskemet, Hungary

9:56 AM CEST on July 23, 2017 (GMT +0200)
Kecskemet

Weather History for LHKE - December, 2012

Change the Weather History Date:

Thursday, December 6, 2012

  Actual Average (LHBP) Record (LHBP)
Temperature  
Mean Temperature 22 °F -  
Max Temperature 26 °F 38 °F 51 °F (2006)
Min Temperature 19 °F 27 °F 12 °F (2012)
Degree Days  
Heating Degree Days 42    
Moisture  
Dew Point 23 °F    
Average Humidity 99    
Maximum Humidity 100    
Minimum Humidity 93    
Precipitation  
Precipitation 0.00 in - - ()
Sea Level Pressure  
Sea Level Pressure 29.84 in    
Wind  
Wind Speed 2 mph ()    
Max Wind Speed 9 mph    
Max Gust Speed -    
Visibility 0.7 miles    
Events Fog , Snow    
Averages and records for this station are not official NWS values.
T = Trace of Precipitation, MM = Missing Value Source: Averaged Metar Reports

Daily Weather History Graph

Daily Weather History Graph

Search for Another Location

Airport or City:

Trip Planner

Search our weather history database for the weather conditions in past years. The results will help you decide how hot, cold, wet, or windy it might be!

Date:

Astronomy

Dec. 06, 2012 Rise Set
Actual Time 7:11 AM CET 3:52 PM CET
Civil Twilight 6:36 AM CET 4:27 PM CET
Nautical Twilight 5:58 AM CET 5:05 PM CET
Astronomical Twilight 5:21 AM CET 5:42 PM CET
Moon 11:49 PM CET (12/6) 11:34 AM CET (12/6)
Length of Visible Light 9h 50m
Length of Day
8h 40m
Waning Gibbous, 52% of the Moon is Illuminated
Dec 6
Waning Gibbous
Dec 6
Last Quarter
Dec 13
New
Dec 20
First Quarter
Dec 28
Full

Hourly Weather History & Observations

Time (CET) Temp. Windchill Dew Point Humidity Pressure Visibility Wind Dir Wind Speed Gust Speed Precip Events Conditions
12:15 AM 24.8 °F - 24.8 °F 100% 29.71 in 0.4 mi West 2.2 mph - N/A Fog Light Freezing Fog
12:45 AM 24.8 °F - 24.8 °F 100% 29.71 in 0.4 mi WNW 2.2 mph - N/A Fog Light Freezing Fog
1:15 AM 21.2 °F - 21.2 °F 100% 29.71 in 0.2 mi Calm Calm - N/A Fog Light Freezing Fog
1:45 AM 19.4 °F - 19.4 °F 100% 29.74 in 0.1 mi WNW 2.2 mph - N/A Fog Light Freezing Fog
2:05 AM 19.4 °F - 19.4 °F 100% 29.74 in 0.1 mi West 2.2 mph - N/A Fog Light Freezing Fog
2:15 AM 19.4 °F - 19.4 °F 100% 29.74 in 0.1 mi WNW 2.2 mph - N/A Fog Light Freezing Fog
2:45 AM 19.4 °F - 19.4 °F 100% 29.74 in 0.1 mi West 2.2 mph - N/A Fog Light Freezing Fog
3:15 AM 21.2 °F 15.0 °F 21.2 °F 100% 29.74 in 0.1 mi WNW 4.5 mph - N/A Fog Light Freezing Fog
3:45 AM 21.2 °F - 21.2 °F 100% 29.74 in 0.1 mi WNW 2.2 mph - N/A Fog Light Freezing Fog
4:15 AM 21.2 °F 15.0 °F 19.4 °F 93% 29.74 in 0.1 mi WNW 4.5 mph - N/A Fog Light Freezing Fog
4:45 AM 21.2 °F - 19.4 °F 93% 29.77 in 0.1 mi WNW 2.2 mph - N/A Fog Light Freezing Fog
5:15 AM 19.4 °F - 19.4 °F 100% 29.77 in 0.1 mi NNW 2.2 mph - N/A Fog Light Freezing Fog
5:45 AM - - - N/A% - 0.4 mi Variable 4.5 mph - N/A Fog Light Freezing Fog
6:15 AM 19.4 °F - 19.4 °F 100% 29.77 in 0.1 mi Calm Calm - N/A Fog Light Freezing Fog
6:45 AM 19.4 °F - 17.6 °F 93% 29.77 in 0.1 mi Calm Calm - N/A Fog Light Freezing Fog
7:15 AM 19.4 °F - 19.4 °F 100% 29.77 in 0.1 mi ENE 2.2 mph - N/A Fog Light Freezing Fog
7:45 AM 19.4 °F - 19.4 °F 100% 29.80 in 0.1 mi NE 2.2 mph - N/A Fog Light Freezing Fog
8:15 AM 19.4 °F - 19.4 °F 100% 29.80 in 0.1 mi NE 2.2 mph - N/A Fog Light Freezing Fog
8:45 AM - - - N/A% - 0.4 mi Variable 4.5 mph - N/A Fog Light Freezing Fog
9:15 AM 21.2 °F - 19.4 °F 93% 29.83 in 0.1 mi NE 2.2 mph - N/A Fog Light Freezing Fog
9:20 AM - - - N/A% - 0.4 mi Variable 4.5 mph - N/A Fog Light Freezing Fog
10:15 AM 23.0 °F - 23.0 °F 100% 29.83 in 0.1 mi Calm Calm - N/A Fog Light Freezing Fog
10:45 AM 23.0 °F - 23.0 °F 100% 29.83 in 0.1 mi ESE 2.2 mph - N/A Fog Light Freezing Fog
11:15 AM 24.8 °F - 24.8 °F 100% 29.86 in 0.1 mi Calm Calm - N/A Fog Light Freezing Fog
11:45 AM - - - N/A% - 0.4 mi Variable 4.5 mph - N/A Fog Light Freezing Fog
12:15 PM 26.6 °F - 26.6 °F 100% 29.83 in 0.1 mi East 2.2 mph - N/A Fog Light Freezing Fog
12:44 PM - - - N/A% - 0.1 mi Variable 4.5 mph - N/A Fog Light Freezing Fog
12:45 PM 26.6 °F - 26.6 °F 100% 29.83 in 0.1 mi ESE 2.2 mph - N/A Fog Light Freezing Fog
1:15 PM 26.6 °F - 26.6 °F 100% 29.83 in 0.1 mi Calm Calm - N/A Fog Light Freezing Fog
1:45 PM 26.6 °F - 26.6 °F 100% 29.86 in 0.1 mi Calm Calm - N/A Fog Light Freezing Fog
2:15 PM 26.6 °F - 26.6 °F 100% 29.86 in 0.1 mi Calm Calm - N/A Fog Light Freezing Fog
2:45 PM - - - N/A% - 0.5 mi Variable 4.5 mph - N/A Fog Light Freezing Fog
3:15 PM 26.6 °F - 26.6 °F 100% 29.86 in 0.1 mi Calm Calm - N/A Fog Light Freezing Fog
3:45 PM 26.6 °F - 26.6 °F 100% 29.86 in 0.1 mi Calm Calm - N/A Fog Light Freezing Fog
4:15 PM 26.6 °F - 26.6 °F 100% 29.89 in 0.1 mi Calm Calm - N/A Fog Light Freezing Fog
4:45 PM 24.8 °F - 24.8 °F 100% 29.89 in 0.1 mi Calm Calm - N/A Fog Light Freezing Fog
5:15 PM 24.8 °F - 24.8 °F 100% 29.89 in 0.1 mi Calm Calm - N/A Fog Light Freezing Fog
5:45 PM - - - N/A% - 0.1 mi Variable 4.5 mph - N/A Fog Light Freezing Fog
6:15 PM 24.8 °F - 24.8 °F 100% 29.92 in 0.1 mi Calm Calm - N/A Fog Light Freezing Fog
6:23 PM 26.6 °F 19.2 °F 26.6 °F 100% 29.92 in 0.1 mi WNW 6.7 mph - N/A Fog , Snow Light Snow
6:36 PM 24.8 °F 15.5 °F 24.8 °F 100% 29.92 in 0.4 mi WNW 8.9 mph - N/A Fog , Snow Light Snow
6:40 PM 24.8 °F 17.1 °F 23.0 °F 93% 29.92 in 0.6 mi WNW 6.7 mph - N/A Snow Light Snow
6:45 PM 23.0 °F 17.1 °F 23.0 °F 100% 29.92 in 0.9 mi WNW 4.5 mph - N/A Snow Light Snow
7:15 PM 23.0 °F - 23.0 °F 100% 29.92 in 1.2 mi Calm Calm - N/A Snow Light Snow
7:26 PM 23.0 °F - 23.0 °F 100% 29.92 in 1.9 mi Calm Calm - N/A Snow Light Snow
7:45 PM 24.8 °F - 24.8 °F 100% 29.92 in 1.9 mi Calm Calm - N/A Snow Light Snow
8:15 PM 24.8 °F - 24.8 °F 100% 29.95 in 1.9 mi SW 2.2 mph - N/A   Mostly Cloudy
8:45 PM - - - N/A% - 1.9 mi Variable 4.5 mph - N/A   Mostly Cloudy
9:15 PM 26.6 °F 21.3 °F 26.6 °F 100% 29.95 in 1.9 mi West 4.5 mph - N/A   Mostly Cloudy
9:45 PM 24.8 °F 19.2 °F 24.8 °F 100% 29.95 in 1.9 mi West 4.5 mph - N/A   Mostly Cloudy
10:15 PM 26.6 °F 21.3 °F 26.6 °F 100% 29.95 in 2.5 mi WNW 4.5 mph - N/A   Mostly Cloudy
10:38 PM 26.6 °F 19.2 °F 26.6 °F 100% 29.95 in 3.1 mi West 6.7 mph - N/A   Mostly Cloudy
10:45 PM 26.6 °F 21.3 °F 26.6 °F 100% 29.95 in 4.3 mi West 4.5 mph - N/A   Unknown
11:15 PM 26.6 °F 19.2 °F 26.6 °F 100% 29.98 in 4.3 mi West 6.7 mph - N/A   Unknown
11:45 PM - - - N/A% - 3.1 mi North - - N/A   Mostly Cloudy